DELTA 1 DEB, 10645

Orbit data source: Space-Track

DELTA 1 DEB, 10645 is space debris in LEO originally from a launch on Thu, 29 Jul 1976 UTC launched from the Air Force Western Test Range (AFWTR). Debris objects in space refer to the collection of defunct objects orbiting the Earth. Examples of debris include non-operational satellites, rocket bodies, and fragments generated from explosions, collisions, or faulty payload assembly.

Loading next visibility...
Identifier
10645, 1976-077F
Orbit
LEO
Country
Flag of USUS
Related business
Manufacturer
Unknown
Mission
Spacecraft
Bus & Motor
Unknown
Mass
Unknown
Launch date (UTC)
1976-07-29 (49 years ago)
Launch vehicle
Unknown
Launch site
Air Force Western Test Range (AFWTR)
Object type
Payload
Rocket body
Debris
Shape & HBR
Unknown shape, 0.2 m
Radar Cross Section
Medium (>0.1 m² and <1 m²)

Expand to show TLE details & history
Last TLE update: 15 hours ago

TLE from 15 hours ago
0 DELTA 1 DEB
1 10645U 76077F   25352.67580830  .00000233  00000-0  31901-2 0  9991
2 10645 102.4161 256.7490 0223051 159.6968 260.4975 11.99210678133052
Epoch: 2025-12-18T16:13Z
TLE epoch observation values (Epoch: 2025-12-18T16:13:09.837Z)
Latitude
55.71724°
Longitude
-92.81816°
Altitude
1,726.988 km
Speed
7.004 km/s
True Right ascension
15h 52m 00s
True Declination
55° 34' 34"
Sunlit
Object was in daylight at epoch
Visualization orbit readout
Latitude
Unknown
Longitude
Unknown
Altitude
Unknown
Speed
Unknown
Apparent Right ascension
Unknown
Apparent Declination
Unknown
Sunlit
N/A
Visualization observer readout
Local Sidereal Time
06:06:00
Azimuth
Unknown
Elevation
Unknown
Doppler factor
Unknown
Orbital elements
Apogee altitude
1,861.831 km
Perigee altitude
1,502.264 km
Semi-major axis
8,060.184 km
Eccentricity
0.02231
Inclination
102.4161°
RAAN
256.749°
Arg. of periapsis
159.6968°
True anomaly
257.98895°
Mean anomaly
260.4975°
Eccentric anomaly
259.24197°
Mean motion
2.99934 °/min
Orbital period
120.03 mins
BSTAR
0.0031901
Loading maneuver chart data...
Computing Atmospheric mass density...
Loading historical data...
Loading historical data...
Loading historical data...
Loading historical data...
Loading historical data...
Loading historical data...
Loading historical data...

Documentation

Showing up to 5 results
|